Jacksonville, FL

7:45 PM EDT on August 25, 2016 (GMT -0400)
Craig Municipal

Weather History for KCRG - October, 2011

Change the Weather History Date:

Friday, October 21, 2011

  Actual Average Record
Temperature  
Mean Temperature 56 °F -  
Max Temperature 70 °F 76 °F 90 °F (2005)
Min Temperature 42 °F 59 °F 42 °F (2011)
Degree Days  
Heating Degree Days 10    
Growing Degree Days 6 (Base 50)    
Moisture  
Dew Point 43 °F    
Average Humidity 68    
Maximum Humidity 89    
Minimum Humidity 35    
Precipitation  
Precipitation 0.00 in - - ()
Sea Level Pressure  
Sea Level Pressure 30.11 in    
Wind  
Wind Speed 2 mph (NNW)    
Max Wind Speed 8 mph    
Max Gust Speed -    
Visibility 10 miles    
Events      
Averages and records for this station are not official NWS values.
T = Trace of Precipitation, MM = Missing Value Source: NWS Daily Summary

Daily Weather History Graph

Daily Weather History Graph

Search for Another Location

Airport or City:

Trip Planner

Search our weather history database for the weather conditions in past years. The results will help you decide how hot, cold, wet, or windy it might be!

Date:

Astronomy

Oct. 21, 2011 Rise Set
Actual Time 7:32 AM EDT 6:48 PM EDT
Civil Twilight 7:07 AM EDT 7:13 PM EDT
Nautical Twilight 6:39 AM EDT 7:41 PM EDT
Astronomical Twilight 6:11 AM EDT 8:09 PM EDT
Moon 1:46 AM EDT (10/21) 3:10 PM EDT (10/21)
Length of Visible Light 12h 05m
Length of Day
11h 16m
Waning Crescent, 34% of the Moon is Illuminated
Oct 21
Waning Crescent
Oct 26
New
Nov 2
First Quarter
Nov 10
Full
Nov 18
Last Quarter

Hourly Weather History & Observations

Time (EDT) Temp. Windchill Dew Point Humidity Pressure Visibility Wind Dir Wind Speed Gust Speed Precip Events Conditions
12:53 AM 48.0 °F - 43.0 °F 83% 30.09 in 10.0 mi Calm Calm - N/A   Clear
1:53 AM 45.0 °F - 41.0 °F 86% 30.10 in 10.0 mi Calm Calm - N/A   Clear
2:53 AM 44.1 °F - 41.0 °F 89% 30.10 in 10.0 mi Calm Calm - N/A   Clear
3:53 AM 46.0 °F - 42.1 °F 86% 30.10 in 10.0 mi Calm Calm - N/A   Clear
4:53 AM 43.0 °F - 39.9 °F 89% 30.12 in 10.0 mi Calm Calm - N/A   Clear
5:53 AM 45.0 °F - 41.0 °F 86% 30.13 in 10.0 mi Calm Calm - N/A   Clear
6:53 AM 42.1 °F - 39.0 °F 89% 30.14 in 10.0 mi Calm Calm - N/A   Clear
7:53 AM 46.0 °F 43.9 °F 42.1 °F 86% 30.16 in 10.0 mi NNW 4.6 mph - N/A   Clear
8:53 AM 53.1 °F - 44.1 °F 71% 30.17 in 10.0 mi NNW 6.9 mph - N/A   Clear
9:53 AM 57.9 °F - 43.0 °F 58% 30.17 in 10.0 mi NNW 5.8 mph - N/A   Clear
11:53 AM 63.0 °F - 41.0 °F 45% 30.16 in 10.0 mi Variable 4.6 mph - N/A   Clear
12:53 PM 64.9 °F - 39.9 °F 40% 30.14 in 10.0 mi NNW 5.8 mph - N/A   Clear
1:53 PM 66.9 °F - 39.9 °F 37% 30.11 in 10.0 mi NNW 5.8 mph - N/A   Clear
2:53 PM 68.0 °F - 42.1 °F 39% 30.08 in 10.0 mi North 8.1 mph - N/A   Clear
3:53 PM 69.1 °F - 41.0 °F 36% 30.07 in 10.0 mi NNW 6.9 mph - N/A   Clear
4:53 PM 69.1 °F - 39.9 °F 35% 30.06 in 10.0 mi Variable 5.8 mph - N/A   Clear
5:53 PM 68.0 °F - 39.9 °F 36% 30.07 in 10.0 mi NW 6.9 mph - N/A   Clear
6:53 PM 60.1 °F - 48.9 °F 67% 30.08 in 10.0 mi East 3.5 mph - N/A   Clear
7:53 PM 55.9 °F - 48.0 °F 75% 30.09 in 10.0 mi Calm Calm - N/A   Clear
8:53 PM 53.1 °F - 48.0 °F 83% 30.11 in 10.0 mi Calm Calm - N/A   Clear
9:53 PM 51.1 °F - 46.9 °F 86% 30.11 in 10.0 mi Calm Calm - N/A   Clear
10:53 PM 51.1 °F - 46.0 °F 83% 30.12 in 10.0 mi Calm Calm - N/A   Clear
11:53 PM 50.0 °F - 45.0 °F 83% 30.12 in 10.0 mi Calm Calm - N/A   Clear